Bangor, ME

11:05 AM EST on December 13, 2019 (GMT -0500)
Bangor International

Weather History for KBGR - October, 2019

Change the Weather History Date:

Tuesday, October 29, 2019

  Actual Average Record
Temperature  
Mean Temperature 49 °F 43 °F  
Max Temperature 52 °F 52 °F 73 °F (1989)
Min Temperature 46 °F 33 °F 15 °F (1941)
Degree Days  
Heating Degree Days 16 22  
Month to date heating degree days 459 508  
Since 1 July heating degree days 673 780  
Cooling Degree Days 0 0  
Month to date cooling degree days 0 0  
Year to date cooling degree days 336 317  
Moisture  
Dew Point 45 °F    
Average Humidity 88    
Maximum Humidity 96    
Minimum Humidity 77    
Precipitation  
Precipitation T in 0.13 in 2.09 in (1963)
Month to date precipitation 5.42 3.92  
Year to date precipitation 44.44 34.00  
Snow  
Snow 0.00 in 0.00 in 7.00 in (2000)
Month to date snowfall 0.0 0.1  
Since 1 July snowfall 0.0 0.1  
Since 1 September snowfall 0.0 0.1  
Snow Depth 0.00 in    
Sea Level Pressure  
Sea Level Pressure 30.35 in    
Wind  
Wind Speed 4 mph ()    
Max Wind Speed 15 mph    
Max Gust Speed 19 mph    
Visibility 9.6 miles    
Events      
T = Trace of Precipitation, MM = Missing Value Source: Averaged Metar Reports

Daily Weather History Graph

Daily Weather History Graph

Search for Another Location

Airport or City:

Astronomy

Oct. 29, 2019 Rise Set
Actual Time 7:08 AM EDT 5:28 PM EDT
Civil Twilight 6:38 AM EDT 5:58 PM EDT
Nautical Twilight 6:04 AM EDT 6:33 PM EDT
Astronomical Twilight 5:30 AM EDT 7:06 PM EDT
Moon 8:40 AM EDT (10/29) 6:47 PM EDT (10/29)
Length of Visible Light 11h 20m
Length of Day
10h 19m
Waxing Crescent, 3% of the Moon is Illuminated
Oct 29
Waxing Crescent
Nov 4
First Quarter
Nov 12
Full
Nov 19
Last Quarter
Nov 26
New

Hourly Weather History & Observations

Time (EDT) Temp. Dew Point Humidity Pressure Visibility Wind Dir Wind Speed Gust Speed Precip Events Conditions
12:20 AM 48.0 °F 45.0 °F 89% 30.36 in 10.0 mi Calm Calm - N/A   Overcast
12:53 AM 46.9 °F 45.0 °F 93% 30.36 in 10.0 mi Calm Calm - N/A   Overcast
1:53 AM 46.9 °F 45.0 °F 93% 30.37 in 10.0 mi Calm Calm - N/A   Overcast
2:53 AM 46.9 °F 44.1 °F 90% 30.37 in 10.0 mi SSE 3.5 mph - N/A   Overcast
3:53 AM 46.9 °F 44.1 °F 90% 30.37 in 10.0 mi SSE 4.6 mph - N/A   Overcast
4:06 AM 46.9 °F 44.1 °F 90% 30.37 in 10.0 mi SSE 4.6 mph - N/A   Overcast
4:27 AM 46.9 °F 44.1 °F 90% 30.37 in 10.0 mi South 3.5 mph - N/A   Overcast
4:53 AM 46.9 °F 44.1 °F 90% 30.38 in 10.0 mi South 3.5 mph - N/A   Overcast
5:53 AM 46.9 °F 43.0 °F 86% 30.38 in 10.0 mi South 3.5 mph - N/A   Overcast
6:53 AM 46.9 °F 43.0 °F 86% 30.38 in 10.0 mi South 4.6 mph - N/A   Overcast
7:53 AM 48.0 °F 44.1 °F 86% 30.40 in 10.0 mi South 3.5 mph - N/A   Overcast
8:53 AM 48.0 °F 44.1 °F 86% 30.40 in 10.0 mi SSW 5.8 mph - N/A   Overcast
9:09 AM 48.0 °F 45.0 °F 89% 30.40 in 8.0 mi SSW 4.6 mph - N/A   Overcast
9:53 AM 48.0 °F 46.0 °F 93% 30.40 in 10.0 mi South 6.9 mph - N/A   Overcast
10:14 AM 48.9 °F 46.0 °F 90% 30.39 in 10.0 mi South 6.9 mph - N/A   Overcast
10:53 AM 48.9 °F 46.0 °F 90% 30.38 in 10.0 mi SSE 6.9 mph - N/A   Overcast
11:28 AM 50.0 °F 46.0 °F 86% 30.37 in 10.0 mi South 8.1 mph - N/A   Overcast
11:53 AM 51.1 °F 45.0 °F 80% 30.37 in 10.0 mi South 8.1 mph - N/A   Overcast
12:53 PM 51.1 °F 45.0 °F 80% 30.36 in 10.0 mi SSW 10.4 mph - N/A   Overcast
1:53 PM 51.1 °F 46.0 °F 83% 30.34 in 9.0 mi South 10.4 mph - N/A   Overcast
2:53 PM 51.1 °F 46.0 °F 83% 30.33 in 10.0 mi SSW 10.4 mph - N/A   Overcast
3:53 PM 52.0 °F 45.0 °F 77% 30.32 in 10.0 mi South 9.2 mph - N/A   Overcast
4:53 PM 50.0 °F 46.0 °F 86% 30.30 in 10.0 mi South 9.2 mph - N/A   Overcast
5:53 PM 50.0 °F 46.0 °F 86% 30.31 in 10.0 mi South 8.1 mph - N/A   Overcast
6:53 PM 50.0 °F 45.0 °F 83% 30.32 in 10.0 mi South 10.4 mph - N/A   Overcast
7:53 PM 50.0 °F 45.0 °F 83% 30.32 in 10.0 mi SSW 8.1 mph - N/A   Overcast
8:53 PM 50.0 °F 45.0 °F 83% 30.32 in 10.0 mi South 8.1 mph - N/A   Overcast
9:53 PM 48.9 °F 45.0 °F 86% 30.31 in 10.0 mi SSW 3.5 mph - N/A   Overcast
10:21 PM 48.9 °F 46.9 °F 93% 30.31 in 9.0 mi South 5.8 mph - 0.00 in   Overcast
10:33 PM 48.0 °F 46.9 °F 96% 30.32 in 4.0 mi South 5.8 mph - 0.00 in   Light Drizzle
10:45 PM 48.0 °F 46.9 °F 96% 30.31 in 7.0 mi South 5.8 mph - 0.00 in   Light Drizzle
11:53 PM 48.0 °F 46.9 °F 96% 30.30 in 10.0 mi South 3.5 mph - 0.00 in   Overcast